{"data":{"norad_id":68348,"epoch":"2026-05-25T04:00:03.998880Z","epoch_age_seconds":57047,"freshness":"FRESH","line1":"1 68348U 26059AD  26145.16671295 -.00012779  00000+0 -36778-3 0  9997","line2":"2 68348  53.1596 348.9652 0000713  70.0668 220.4139 15.34396309  5925","mean_motion":15.34396309,"eccentricity":7.13e-5,"inclination_deg":53.1596,"raan_deg":348.9652,"arg_perigee_deg":70.0668,"mean_anomaly_deg":220.4139,"bstar":-0.00036778,"rev_number":592,"period_min":93.847983832709,"perigee_km":462.22645796762,"apogee_km":463.20196335026,"semimajor_km":6840.8512106589,"source":"CELESTRAK","updated_at":"2026-05-25T13:38:21.927522Z"}}